Location: Newark
(40.9833°N, 0.0333°W)
Time: 06:56:40
(UTC+00:00)

AIST 2D - Visible Passes

Search period start: 24 May 2019 00:00
Search period end: 03 June 2019 00:00
Orbit: 458 x 471 km, 97.2° (Epoch: 24 May)

Date Brightness Start Highest point End Pass type
(mag) Time Alt. Az. Time Alt. Az. Time Alt. Az.
24 May ? 22:14:04 10° NE 22:14:53 14° NE 22:14:53 14° NE visible
24 May ? 23:47:14 10° NNW 23:48:50 17° NW 23:48:50 17° NW visible
25 May ? 23:16:11 10° N 23:18:09 29° NNW 23:18:09 29° NNW visible
26 May ? 22:45:40 10° NNE 22:47:27 28° NNE 22:47:27 28° NNE visible
27 May ? 22:15:43 10° NE 22:16:46 16° NE 22:16:46 16° NE visible
27 May ? 23:49:02 10° NNW 23:50:43 17° NW 23:50:43 17° NW visible
28 May ? 23:17:54 10° N 23:20:01 30° NNW 23:20:01 30° NNW visible
29 May ? 22:47:22 10° NNE 22:49:18 31° NNE 22:49:18 31° NNE visible
30 May ? 22:17:22 10° NE 22:18:36 17° NE 22:18:36 17° NE visible
30 May ? 23:50:48 10° NNW 23:52:33 17° NW 23:52:33 17° NW visible
31 May ? 23:19:36 10° N 23:21:50 31° NNW 23:21:50 31° NNW visible
01 Jun ? 22:49:02 10° NNE 22:51:07 34° NNE 22:51:07 34° NNE visible
02 Jun ? 22:18:59 10° NE 22:20:24 19° NE 22:20:24 19° NE visible
02 Jun ? 23:52:33 10° NNW 23:54:21 16° WNW 23:54:21 16° WNW visible
